Date String (YYYY-MM-DD hh:mm:ss) UTC,Instrument flags,Ambient pressure (hPa),Sample flow (lpm),Bypass flow (lpm),Sample temperature (°C),Ambient temperature (°C),ASC tube jacket temperature (°C),LED temperature (°C),Box temperature (°C),Sample RH (%),Span deviation,Mass concentration (μg/m³),Mass concentration (μg/m³),Mass concentration (μg/m³)
DateTimeUTC,F1_M11,P_M11,Q1_M11,Q2_M11,T1_M11,T2_M11,T3_M11,T4_M11,T5_M11,U1_M11,ZSPAN_M11,X0_M11,X2_M11,X1_M11
2022-02-28 14:00:00,,0831.2,5.01,0.00,22.0,21.4,00.0,31.1,23.8,06.1,0000.0,0001.17,0000.80,0000.63
2022-02-28 14:01:00,,0831.1,5.00,0.00,22.0,21.5,00.0,31.1,23.8,06.0,0000.0,0001.19,0000.82,0000.65
2022-02-28 14:02:00,,0831.2,4.99,0.00,22.1,21.5,00.0,31.1,23.9,06.0,0000.0,0001.29,0000.89,0000.71
2022-02-28 14:03:00,,0831.2,5.00,0.00,22.1,21.5,00.0,31.1,23.9,06.0,0000.0,0001.44,0000.98,0000.77
2022-02-28 14:04:00,,0831.2,5.01,0.00,22.1,21.5,00.0,31.1,23.9,05.8,0000.0,0001.76,0001.09,0000.88
2022-02-28 14:05:00,,0831.2,4.98,0.00,22.1,21.6,00.0,31.1,23.9,05.6,0000.0,0001.92,0001.16,0000.95
2022-02-28 14:06:00,,0831.1,5.01,0.00,22.1,21.6,00.0,31.1,23.9,05.3,0000.0,0002.00,0001.21,0000.99
2022-02-28 14:07:00,,0831.1,5.00,0.00,22.1,21.6,00.0,31.1,23.9,05.2,0000.0,0002.01,0001.22,0001.01
2022-02-28 14:08:00,,0831.1,5.00,0.00,22.1,21.6,00.0,31.1,23.9,05.1,0000.0,0002.01,0001.23,0001.02
2022-02-28 14:09:00,,0831.1,4.98,0.00,22.1,21.6,00.0,31.1,23.9,05.1,0000.0,0001.97,0001.22,0001.02
2022-02-28 14:10:00,,0831.1,5.00,0.00,22.1,21.6,00.0,31.1,23.9,05.0,0000.0,0001.98,0001.23,0001.03
2022-02-28 14:11:00,,0831.1,5.00,0.00,22.1,21.5,00.0,31.1,23.9,04.9,0000.0,0002.01,0001.25,0001.04
2022-02-28 14:12:00,,0831.2,4.99,0.00,22.1,21.5,00.0,31.1,23.9,04.8,0000.0,0002.07,0001.27,0001.04
2022-02-28 14:13:00,,0831.2,5.00,0.00,22.1,21.5,00.0,31.1,23.9,04.9,0000.0,0002.08,0001.25,0001.01
2022-02-28 14:14:00,,0831.2,5.00,0.00,22.1,21.5,00.0,31.1,23.8,04.7,0000.0,0001.92,0001.15,0000.95
2022-02-28 14:15:00,,0831.2,5.01,0.00,22.1,21.5,00.0,31.1,23.8,04.6,0000.0,0001.66,0001.06,0000.85
2022-02-28 14:16:00,,0831.2,4.98,0.00,22.1,21.5,00.0,31.1,23.8,04.5,0000.0,0001.30,0000.94,0000.79
2022-02-28 14:17:00,,0831.2,5.01,0.00,22.1,21.5,00.0,31.1,23.9,04.5,0000.0,0001.14,0000.87,0000.74
2022-02-28 14:18:00,,0831.2,5.01,0.00,22.1,21.5,00.0,31.1,23.8,04.5,0000.0,0001.11,0000.85,0000.72
2022-02-28 14:19:00,,0831.1,4.99,0.00,22.1,21.5,00.0,31.1,23.8,04.6,0000.0,0001.11,0000.86,0000.72
2022-02-28 14:20:00,,0831.2,5.00,0.00,22.1,21.5,00.0,31.1,23.8,04.7,0000.0,0001.17,0000.87,0000.73
2022-02-28 14:21:00,,0831.2,5.01,0.00,22.1,21.8,00.0,31.1,23.9,04.9,0000.0,0001.21,0000.89,0000.72
2022-02-28 14:22:00,,0831.2,5.00,0.00,22.2,22.6,00.0,31.1,24.2,05.2,0000.0,0001.52,0000.93,0000.74
2022-02-28 14:23:00,,0831.2,4.99,0.00,22.4,23.2,00.0,31.2,24.4,05.1,0000.0,0001.75,0000.99,0000.77
2022-02-28 14:24:00,,0831.2,5.01,0.00,22.5,23.1,00.0,31.2,24.5,05.4,0000.0,0001.83,0001.04,0000.82
2022-02-28 14:25:00,,0831.2,5.00,0.00,22.5,22.9,00.0,31.3,24.5,05.4,0000.0,0001.87,0001.09,0000.87
2022-02-28 14:26:00,,0831.2,4.99,0.00,22.5,22.7,00.0,31.3,24.5,05.4,0000.0,0001.99,0001.19,0000.94
2022-02-28 14:27:00,,0831.2,5.01,0.00,22.5,22.6,00.0,31.3,24.4,05.4,0000.0,0002.16,0001.29,0001.02
2022-02-28 14:28:00,,0831.2,4.99,0.00,22.5,22.4,00.0,31.3,24.4,05.4,0000.0,0002.36,0001.40,0001.10
2022-02-28 14:29:00,,0831.2,4.99,0.00,22.6,22.3,00.0,31.3,24.5,05.2,0000.0,0002.59,0001.51,0001.18
2022-02-28 14:30:00,,0831.2,5.01,0.00,22.6,22.3,00.0,31.4,24.4,05.2,0000.0,0002.75,0001.58,0001.22
2022-02-28 14:31:00,,0831.2,5.00,0.00,22.6,22.2,00.0,31.4,24.4,05.4,0000.0,0002.89,0001.66,0001.27
2022-02-28 14:32:00,,0831.2,4.99,0.00,22.6,22.2,00.0,31.4,24.4,05.0,0000.0,0002.88,0001.67,0001.30
2022-02-28 14:33:00,,0831.3,5.00,0.00,22.6,22.1,00.0,31.4,24.4,04.7,0000.0,0002.65,0001.64,0001.29
2022-02-28 14:34:00,,0831.3,5.00,0.00,22.6,22.1,00.0,31.4,24.4,04.7,0000.0,0002.29,0001.56,0001.25
2022-02-28 14:35:00,,0831.3,5.00,0.00,22.5,22.1,00.0,31.4,24.4,04.6,0000.0,0002.14,0001.47,0001.19
2022-02-28 14:36:00,,0831.4,4.99,0.00,22.5,22.0,00.0,31.4,24.3,04.7,0000.0,0002.16,0001.43,0001.13
2022-02-28 14:37:00,,0831.4,5.00,0.00,22.5,21.9,00.0,31.4,24.3,04.7,0000.0,0002.24,0001.36,0001.06
2022-02-28 14:38:00,,0831.4,4.99,0.00,22.5,21.9,00.0,31.4,24.2,04.5,0000.0,0002.12,0001.27,0000.99
2022-02-28 14:39:00,,0831.4,5.01,0.00,22.4,21.9,00.0,31.4,24.2,04.5,0000.0,0001.99,0001.16,0000.90
2022-02-28 14:40:00,,0831.4,5.00,0.00,22.4,21.8,00.0,31.4,24.2,04.7,0000.0,0001.88,0001.07,0000.84
2022-02-28 14:41:00,,0831.4,5.00,0.00,22.4,21.8,00.0,31.4,24.2,04.9,0000.0,0001.75,0001.00,0000.81
2022-02-28 14:42:00,,0831.5,5.00,0.00,22.4,21.8,00.0,31.4,24.3,04.9,0000.0,0001.63,0000.94,0000.76
2022-02-28 14:43:00,,0831.5,5.00,0.00,22.4,21.8,00.0,31.4,24.2,05.2,0000.0,0001.69,0000.96,0000.76
2022-02-28 14:44:00,,0831.4,4.99,0.00,22.4,21.8,00.0,31.4,24.2,05.4,0000.0,0001.78,0001.02,0000.81
2022-02-28 14:45:00,,0831.4,5.00,0.00,22.4,21.8,00.0,31.4,24.2,05.7,0000.0,0001.99,0001.13,0000.89
2022-02-28 14:46:00,,0831.5,5.00,0.00,22.4,21.8,00.0,31.4,24.2,05.7,0000.0,0002.23,0001.24,0000.98
2022-02-28 14:47:00,,0831.5,5.01,0.00,22.4,21.8,00.0,31.4,24.2,05.5,0000.0,0002.42,0001.35,0001.06
2022-02-28 14:48:00,,0831.5,5.00,0.00,22.5,21.9,00.0,31.4,24.3,05.3,0000.0,0002.30,0001.38,0001.11
2022-02-28 14:49:00,,0831.5,4.99,0.00,22.5,21.9,00.0,31.4,24.3,05.0,0000.0,0002.33,0001.41,0001.14
2022-02-28 14:50:00,,0831.6,5.01,0.00,22.5,21.9,00.0,31.4,24.3,04.9,0000.0,0002.27,0001.42,0001.17
2022-02-28 14:51:00,,0831.6,5.00,0.00,22.5,21.9,00.0,31.4,24.3,05.6,0000.0,0002.30,0001.44,0001.20
2022-02-28 14:52:00,,0831.6,5.00,0.00,22.5,21.9,00.0,31.4,24.4,05.1,0000.0,0002.28,0001.45,0001.22
2022-02-28 14:53:00,,0831.6,5.00,0.00,22.5,22.0,00.0,31.5,24.4,05.1,0000.0,0002.26,0001.45,0001.23
2022-02-28 14:54:00,,0831.6,4.99,0.00,22.6,22.0,00.0,31.5,24.4,04.9,0000.0,0002.29,0001.46,0001.23
2022-02-28 14:55:00,,0831.7,5.01,0.00,22.6,22.0,00.0,31.5,24.4,05.4,0000.0,0002.21,0001.42,0001.20
2022-02-28 14:56:00,,0831.7,5.01,0.00,22.6,22.0,00.0,31.5,24.4,06.7,0000.0,0002.12,0001.39,0001.16
2022-02-28 14:57:00,,0831.8,4.98,0.00,22.6,22.0,00.0,31.5,24.4,07.3,0000.0,0002.13,0001.38,0001.13
2022-02-28 14:58:00,,0831.7,5.01,0.00,22.6,22.0,00.0,31.5,24.5,06.5,0000.0,0002.13,0001.35,0001.10
2022-02-28 14:59:00,,0831.7,5.01,0.00,22.6,22.0,00.0,31.5,24.5,06.6,0000.0,0002.13,0001.38,0001.11
